Location: Coopersdale
(40.3556°N, 78.9372°W)
Time: 09:46:36
(UTC+00:00)

Vanguard 1 - Pass Details

Date: 30 January 2021
Orbit: 649 x 3834 km, 34.2° (Epoch: 07 March)

Event Time Altitude Azimuth Distance (km) Brightness Sun altitude
Rises 01:24:44 0° 281° (W) 7,979 15.8 -33.2°
Reaches altitude 10° 01:34:35 10° 262° (W) 6,755 15.1 -35.1°
Maximum altitude 01:43:37 14° 237° (WSW) 5,938 14.4 -36.8°
Drops below altitude 10° 01:51:31 10° 211° (SSW) 5,715 14.1 -38.3°
Sets 01:58:32 0° 188° (S) 6,050 14.1 -39.6°
